Location: Friedrichshafen
(47.6598°N, 9.4819°E)
Time: 08:27:52
(UTC+01:00)

ISS - Pass Details

Date: 09 January 2018
Orbit: 402 x 407 km, 51.6° (Epoch: 24 January)

Event Time Altitude Azimuth Distance (km) Brightness Sun altitude
Exits shadow 05:48:13 34° 47° (NE) 697 -2.4 -22.9°
Drops below altitude 10° 05:50:32 10° 80° (E) 1,470 0.0 -22.5°
Sets 05:52:42 0° 88° (E) 2,331 1.4 -22.1°
